Погода в Ромодане

Украина / Полтавская область     49°59′42″N   33°19′19″E
темп.,
°C
ветер,
м/с
пор.,
м/с
влажн.,
%
обл.,
%
осадки,
мм/ч
давл.,
гПа
погр.,
м
16 мая, вс
вс1600:00+14ююз228098 0.0 101215
03:00+12зюз22881 0.0 101313
06:00+12зсз22870 0.0 101323
09:00+18сз116899 0.0 1013337
12:00+22вюв015494 0.0 1013953
15:00+23всв2346100 0.0 10111929
18:00+23св3460100 0.0 1010417
21:00+17ссв477617 0.0 100991
17 мая, пн
пн1700:00+15всв3988100 0.3 1009150
03:00+15св51387100 0.9 1006266
06:00+14ссв3795100 0.2 1005187
09:00+19в467631 0.2 1004487
12:00+23вюв575652 0.0 1002862
15:00+24юв696299 0.0 10011589
18:00+22ююв69761 0.1 1001726
21:00+19ююв613832 0.1 1002537
18 мая, вт
вт1800:00+15ююв81486100 0.0 1002736
03:00+15ююз81487100 0.0 1003742
06:00+13ю51190100 0.0 1005384
09:00+17ююв6880100 0.0 1006652
12:00+21ююв7963100 0.1 10051115
15:00+21ююв7106493 1.8 10041703
18:00+17ююз61083100 1.4 1004768
21:00+14юв3891100 1.4 1003325
19 мая, ср
ср1900:00+14юв4997100 0.1 1002315
03:00+13ююз4796100 0.2 1002326
06:00+11ю4895100 0.0 1002375
09:00+13ю578099 0.0 1003795
12:00+15ююв4576100 0.1 1003888
15:00+16ю347496 1.2 1002794
18:00+12з6992100 1.3 1004760
21:00+11з71295100 3.4 1006728
20 мая, чт
чт2000:00+10з71291100 2.3 1008833
03:00+10зюз61292100 2.3 1008689
06:00+9зюз512944 0.0 1010437
09:00+14зюз68725 0.0 1011824
12:00+17зюз4660100 0.0 10111364
15:00+19юз4554100 0.0 10111776
18:00+18ююв2365100 0.0 1010816
21:00+14ссз348399 0.6 101074